This is the latest recevied weather packets stored in our database for station/object MM1PTT-13. If no packets are shown the sender has not sent any weather packets the latest 10 day(s).
| Time | Temp. | Humidity | Pressure | Rain* | Wind** | Luminosity | Snow |
|---|---|---|---|---|---|---|---|
| 1777385746 | 12.22° C | 71% | 1002 hPa | 0 mm | - | 996 W/m² | - |
| 1777385446 | 11.67° C | 71% | 1002.4 hPa | 0 mm | - | 445 W/m² | - |
| 1777385144 | 12.22° C | 71% | 1002.4 hPa | 0 mm | - | 351 W/m² | - |
| 1777384846 | 11.67° C | 71% | 1002.4 hPa | 0 mm | - | 342 W/m² | - |
| 1777384547 | 11.67° C | 70% | 1002.4 hPa | 0 mm | - | 420 W/m² | - |
| 1777384245 | 11.67° C | 72% | 1002.7 hPa | 0 mm | - | 380 W/m² | - |
| 1777383945 | 12.22° C | 72% | 1002.4 hPa | 0 mm | - | 325 W/m² | - |
| 1777383644 | 12.22° C | 72% | 1002.4 hPa | 0 mm | - | 315 W/m² | - |
| 1777383345 | 11.67° C | 71% | 1002.4 hPa | 0 mm | - | 287 W/m² | - |
| 1777383045 | 11.67° C | 71% | 1002.7 hPa | 0 mm | - | 291 W/m² | - |
| 1777382746 | 11.67° C | 72% | 1002.7 hPa | 0 mm | - | 324 W/m² | - |
| 1777382443 | 12.22° C | 71% | 1002.7 hPa | 0 mm | - | 293 W/m² | - |
| 1777382143 | 11.67° C | 71% | 1002.7 hPa | 0 mm | - | 410 W/m² | - |
| 1777381843 | 11.67° C | 72% | 1002.4 hPa | 0 mm | - | 390 W/m² | - |
| 1777381544 | 11.67° C | 72% | 1002.4 hPa | 0 mm | - | 345 W/m² | - |
| 1777381245 | 11.67° C | 74% | 1002.7 hPa | 0 mm | - | 328 W/m² | - |
| 1777380945 | 11.67° C | 74% | 1002.7 hPa | 0 mm | - | 291 W/m² | - |
| 1777380644 | 11.67° C | 74% | 1003 hPa | 0 mm | - | 291 W/m² | - |
| 1777380345 | 11.67° C | 74% | 1002.7 hPa | 0 mm | - | 301 W/m² | - |
| 1777380047 | 11.67° C | 74% | 1003 hPa | 0 mm | - | 297 W/m² | - |
| 1777379743 | 11.11° C | 73% | 1003 hPa | 0 mm | - | 363 W/m² | - |
| 1777379447 | 11.11° C | 74% | 1003 hPa | 0 mm | - | 263 W/m² | - |
| 1777379146 | 11.11° C | 75% | 1003 hPa | 0 mm | - | 273 W/m² | - |
| 1777378845 | 11.11° C | 75% | 1002.7 hPa | 0 mm | - | 242 W/m² | - |
| 1777378543 | 11.11° C | 74% | 1003 hPa | 0 mm | - | 207 W/m² | - |
* Rain latest hour (hover to see other rain measurements)
** Current wind speed in m/s (hover to see current wind gust speed)